User: anonymous   Login
Location: Fort Wayne
(41.1310°N, 85.1290°W)
Time: 19:46:48
(UTC-04:00)
Language:

Cosmos 2082 - Orbit

View from above orbital plane
View from above orbital plane
View from above satellite
View from above satellite

Ground track
Ground track

The orbit data is extracted from the following two-line orbital elements,

1 20624U 90046A   17289.42984174 +.00000002 +00000-0 +25622-4 0  9992
2 20624 071.0396 320.8042 0016147 209.7285 150.2921 14.14228504414115
Epoch (UTC): 16 October 2017 10:18:58
Eccentricity: 0.0016147
inclination: 71.0396°
perigee height: 833 km
apogee height: 856 km
right ascension of ascending node: 320.8042°
argument of perigee: 209.7285°
revolutions per day: 14.14228504
mean anomaly at epoch: 150.2921°
orbit number at epoch: 41411

The dashed part of the orbit path shows where the satellite is in the earth's shadow,  

DLR